This demonstration page uses our WeatherBlox Daily Observations layout. Learn more.

Left ArrowRight Arrow

Hourly Observations for July 10, 2016

Temp ( °F °C ) Dew Point ( °F °C ) Humidity (%) Winds ( mph kmh ) Pressure ( in mb ) Visibility ( mi km ) Precip ( " mm )
12:15 am 00:15 Clear 77 25.2 69 20.3 74 74 SSE 9 15 29.83 1010 10 16 N/A
12:35 am 00:35 Clear 76 24.7 69 20.4 77 77 SSE 10 17 29.83 1010 10 16 N/A
12:55 am 00:55 Clear 77 25 68 20.2 75 75 S 13 20 29.80 1009 10 16 N/A
1:15 am 01:15 Clear 77 25.1 68 20.1 74 74 S 13 20 29.80 1009 10 16 N/A
1:35 am 01:35 Clear 76 24.6 68 20 76 76 S 12 19 29.80 1009 10 16 N/A
1:55 am 01:55 Clear 76 24.5 68 20.1 77 77 S 12 19 29.80 1009 10 16 N/A
2:15 am 02:15 Clear 75 24.1 68 20 78 78 S 8 13 29.80 1009 10 16 N/A
2:35 am 02:35 Clear 74 23.5 68 20 81 81 S 8 13 29.80 1009 10 16 N/A
2:55 am 02:55 Clear 74 23.1 68 20 83 83 SSE 7 11 29.80 1009 10 16 N/A
3:15 am 03:15 Clear 73 22.5 68 19.8 85 85 S 5 7 29.77 1008 10 16 N/A
3:35 am 03:35 Clear 72 22.4 68 20 86 86 SSE 6 9 29.77 1008 10 16 N/A
3:55 am 03:55 Clear 72 22.3 68 20 87 87 SSE 7 11 29.77 1008 10 16 N/A
4:15 am 04:15 Clear 72 22.3 68 20 87 87 SSE 8 13 29.77 1008 10 16 N/A
4:35 am 04:35 Clear 72 22 68 20 88 88 S 9 15 29.80 1009 10 16 N/A
4:55 am 04:55 Clear 73 22.5 68 20 86 86 S 10 17 29.77 1008 10 16 N/A
5:15 am 05:15 Clear 72 22.3 68 20 87 87 S 10 17 29.77 1008 10 16 N/A
5:35 am 05:35 Clear 72 22.3 68 20 87 87 S 10 17 29.74 1007 10 16 N/A
5:55 am 05:55 Clear 72 22.2 68 20 87 87 S 10 17 29.77 1008 10 16 N/A
6:15 am 06:15 Clear 72 22 68 19.8 87 87 S 9 15 29.80 1009 10 16 N/A
6:35 am 06:35 Sunny 72 22 67 19.7 87 87 S 10 17 29.74 1007 10 16 N/A
6:55 am 06:55 Sunny 72 22 67 19.6 86 86 S 8 13 29.74 1007 10 16 N/A
7:15 am 07:15 Sunny 73 22.5 67 19.7 84 84 S 9 15 29.74 1007 10 16 N/A
7:35 am 07:35 Sunny 73 22.8 68 19.8 83 83 S 12 19 29.74 1007 10 16 N/A
7:55 am 07:55 Sunny 74 23.4 68 19.8 80 80 S 10 17 29.74 1007 10 16 N/A
8:15 am 08:15 Sunny 75 24 68 19.9 78 78 SSE 10 17 29.74 1007 10 16 N/A
8:35 am 08:35 Sunny 76 24.4 68 19.9 76 76 S 12 19 29.74 1007 10 16 N/A
8:55 am 08:55 Sunny 77 24.9 69 20.3 76 76 S 10 17 29.74 1007 10 16 N/A
9:15 am 09:15 Sunny 78 25.6 69 20.7 74 74 S 13 20 29.71 1006 10 16 N/A
9:35 am 09:35 Sunny 79 26.2 69 20.8 72 72 S 9 15 29.71 1006 10 16 N/A
9:55 am 09:55 Sunny 81 27 70 21 70 70 S 13 20 29.68 1005 10 16 N/A
10:15 am 10:15 Sunny 81 27.4 70 21.1 69 69 S 13 20 29.68 1005 10 16 N/A
10:35 am 10:35 Sunny 83 28.1 70 21.3 67 67 S 15 24 29.68 1005 10 16 N/A
10:55 am 10:55 Sunny 84 28.7 71 21.6 66 66 S 15 24 29.65 1004 10 16 N/A
11:15 am 11:15 Sunny 84 29 71 21.4 64 64 S 17 28 29.62 1003 10 16 N/A
11:35 am 11:35 Sunny 86 29.8 71 21.5 61 61 SSE 16 26 29.62 1003 10 16 N/A
11:55 am 11:55 Sunny 87 30.4 71 21.8 60 60 S 16 26 29.62 1003 10 16 N/A
12:15 pm 12:15 Sunny 88 31 71 21.8 58 58 S 17 28 29.59 1002 10 16 N/A
12:35 pm 12:35 Sunny 89 31.8 71 21.9 56 56 S 18 30 29.56 1001 10 16 N/A
12:55 pm 12:55 Sunny 90 32.1 70 21.3 53 53 S 16 26 29.56 1001 10 16 N/A
1:15 pm 13:15 Sunny 91 32.9 71 21.8 52 52 S 18 30 29.56 1001 10 16 N/A
1:35 pm 13:35 Sunny 92 33.5 71 21.8 50 50 SSE 14 22 29.56 1001 10 16 N/A
1:55 pm 13:55 Sunny 92 33.6 72 22 51 51 SSE 17 28 29.53 1000 10 16 N/A
2:15 pm 14:15 Sunny 94 34.2 71 21.7 48 48 S 21 33 29.53 1000 10 16 N/A
2:35 pm 14:35 Sunny 94 34.3 70 20.9 45 45 S 15 24 29.53 1000 10 16 N/A
2:55 pm 14:55 Sunny 94 34.7 70 21 45 45 S 24 39 29.53 1000 10 16 N/A
3:15 pm 15:15 Sunny 95 35 69 20.4 42 42 S 20 31 29.47 998 10 16 N/A
3:35 pm 15:35 Sunny 96 35.3 68 20.2 41 41 S 22 35 29.47 998 10 16 N/A
3:55 pm 15:55 Sunny 96 35.5 69 20.7 42 42 SSE 21 33 29.47 998 10 16 N/A
4:15 pm 16:15 Sunny 96 35.6 69 20.7 42 42 SSE 24 39 29.47 998 10 16 N/A
4:35 pm 16:35 Sunny 96 35.5 69 20.3 41 41 SSE 22 35 29.47 998 10 16 N/A
4:55 pm 16:55 Sunny 96 35.6 69 20.4 41 41 SSE 22 35 29.47 998 10 16 N/A
5:15 pm 17:15 Sunny 95 35.2 69 20.6 42 42 SSE 20 31 29.47 998 10 16 N/A
5:35 pm 17:35 Sunny 95 35.1 70 21.1 44 44 SSE 18 30 29.47 998 10 16 N/A
5:55 pm 17:55 Sunny 95 34.8 69 20.8 44 44 SSE 23 37 29.50 999 10 16 N/A
6:15 pm 18:15 Sunny 94 34.5 69 20.7 44 44 SSE 21 33 29.50 999 10 16 N/A
6:35 pm 18:35 Sunny 93 34.1 69 20.4 45 45 SSE 20 31 29.50 999 10 16 N/A
6:55 pm 18:55 Sunny 93 33.8 68 20.2 45 45 SSE 20 31 29.50 999 10 16 N/A
7:15 pm 19:15 Sunny 92 33.3 69 20.4 47 47 SSE 16 26 29.50 999 7 11 N/A
7:35 pm 19:35 Sunny 91 32.8 68 19.8 46 46 SSE 16 26 29.47 998 10 16 N/A
7:55 pm 19:55 Sunny 90 32.1 67 19.3 47 47 SSE 16 26 29.47 998 7 11 N/A
8:15 pm 20:15 Sunny 89 31.9 66 19.1 47 47 SE 14 22 29.47 998 10 16 N/A
8:35 pm 20:35 Sunny 88 31.2 68 19.8 51 51 SE 15 24 29.47 998 10 16 N/A
8:55 pm 20:55 Sunny 87 30.5 67 19.6 52 52 SE 13 20 29.50 999 10 16 N/A
9:15 pm 21:15 Clear 85 29.6 68 19.8 56 56 SE 13 20 29.53 1000 10 16 N/A
9:35 pm 21:35 Clear 84 29 67 19.7 57 57 SE 13 20 29.53 1000 10 16 N/A
9:55 pm 21:55 Clear 84 28.8 67 19.5 57 57 SSE 15 24 29.53 1000 10 16 N/A
10:15 pm 22:15 Clear 84 28.9 67 19.2 56 56 SSE 17 28 29.53 1000 10 16 N/A
10:35 pm 22:35 Clear 83 28.5 67 19.2 57 57 SSE 16 26 29.53 1000 10 16 N/A
10:55 pm 22:55 Clear 83 28.4 67 19.3 58 58 SSE 16 26 29.53 1000 10 16 N/A
11:15 pm 23:15 Clear 83 28.2 67 19.5 59 59 SSE 17 28 29.53 1000 10 16 N/A
11:35 pm 23:35 Clear 82 28 67 19.6 60 60 SSE 18 30 29.53 1000 10 16 N/A
11:55 pm 23:55 Clear 82 27.7 67 19.7 62 62 SSE 18 30 29.53 1000 10 16 N/A

Powered by AerisWeather